Wind_Speed
3 3 3 4 4 6 8 10 10 9 9 9 8 8 8 7 6 6 6 6 7 8 8 9 9 9 8 8 7 6 6 6 6 5 6 6 7 7 7 7 7 7 7 7 7 7 7 7 6
3 3 3 3 4 6 7 9 9 8 8 8 8 7 6 6 6 6 5 5 6 7 7 8 8 8 7 6 6 5 5 5 4 4 5 5 6 6 6 6 5 5 6 6 6 6 6 5 5
3 3 3 4 4 5 6 8 8 9 9 8 7 7 5 5 5 5 5 5 5 6 6 7 7 7 6 6 5 5 4 4 4 3 4 4 4 5 4 4 4 4 5 5 5 5 5 5 4
3 3 3 2 3 5 7 7 7 8 8 7 7 6 5 4 5 4 4 4 5 5 5 6 6 6 5 5 4 4 4 3 3 3 3 3 3 3 3 3 3 3 4 4 4 4 4 4 4
4 3 4 3 4 5 6 6 7 9 8 6 6 6 4 4 4 3 3 3 4 4 4 5 5 5 4 4 4 3 3 2 2 2 2 2 2 2 2 2 1 2 3 3 3 3 3 3 3
5 4 4 3 2 4 6 6 6 7 6 5 5 5 4 3 3 3 3 3 3 3 4 3 4 4 3 3 3 3 2 2 1 2 1 1 1 0 0 0 1 2 1 2 2 2 2 2 2
6 5 4 5 3 3 5 5 5 5 5 5 4 4 3 3 3 2 2 2 2 3 3 2 2 3 2 2 2 2 2 1 1 1 0 0 1 1 1 1 1 1 1 1 1 2 2 2 2
8 7 6 5 3 3 4 3 4 5 5 5 5 4 3 2 3 2 1 1 2 2 2 2 3 3 2 2 1 1 0 0 0 0 0 1 1 1 1 1 1 1 1 1 1 1 1 2 2
9 9 7 5 3 3 2 2 3 5 6 7 6 5 4 2 2 1 1 1 2 3 3 3 3 3 3 3 2 1 1 1 1 0 1 1 1 1 1 1 1 1 1 1 1 1 1 1 1
11 11 9 6 4 2 1 2 3 4 6 6 6 5 4 2 2 1 1 2 2 3 3 4 4 4 4 3 3 2 1 1 1 1 1 1 2 2 2 2 2 2 2 2 2 2 1 1 1
13 12 11 8 5 3 3 4 3 4 4 5 4 4 4 2 1 1 1 2 2 2 2 3 4 5 5 5 4 4 3 2 1 1 1 2 2 3 3 3 3 2 2 2 2 2 1 2 2
15 13 13 11 7 6 6 6 5 5 5 4 3 4 4 3 2 1 1 2 2 3 3 3 4 5 5 5 5 5 4 3 3 2 2 3 3 4 4 4 4 3 3 3 2 2 2 2 3
17 15 14 12 10 9 9 8 7 6 6 5 5 5 4 4 2 1 1 2 3 4 4 3 5 5 6 5 5 5 5 4 4 4 4 4 4 4 4 4 5 4 4 3 3 3 3 3 3
18 18 16 14 12 12 11 10 9 7 7 7 5 4 5 5 4 3 2 2 3 4 5 4 5 6 6 6 6 5 5 4 5 5 5 5 5 5 5 5 5 5 5 4 4 4 4 4 4
20 19 17 16 14 13 11 10 9 8 8 7 5 4 4 5 4 3 2 2 3 5 5 5 6 7 7 6 6 6 5 5 5 6 6 6 6 5 5 6 6 5 5 5 5 5 5 4 4
21 20 18 16 15 14 13 10 10 9 9 8 6 4 4 4 5 4 3 3 4 5 5 6 6 7 7 8 7 7 7 7 6 6 7 6 6 6 5 6 6 6 7 7 7 6 6 5 5
21 19 18 16 15 14 13 10 10 10 10 9 7 5 4 4 5 5 4 4 5 5 6 6 7 8 7 8 8 8 8 8 8 8 8 8 7 7 7 6 6 6 7 7 7 7 7 6 5
21 19 18 17 15 14 13 10 10 12 10 8 7 6 5 4 5 6 5 5 6 6 7 7 8 8 8 9 9 9 9 9 9 9 8 8 8 8 7 7 7 7 7 7 7 8 7 7 6
23 22 20 18 15 14 12 12 12 12 10 9 9 8 6 6 6 7 7 7 7 7 7 8 7 8 8 9 9 9 9 9 9 9 10 9 9 9 9 9 8 8 8 8 8 8 8 7 7
24 22 20 19 16 15 14 14 13 13 13 12 10 9 8 7 7 7 8 8 8 8 8 8 9 8 8 8 9 9 10 10 9 10 10 10 9 10 10 10 10 10 10 9 9 9 8 8 8
25 22 20 18 17 17 16 16 16 14 14 13 12 10 9 8 8 8 9 9 9 8 8 8 8 8 8 8 8 8 8 9 9 9 9 10 10 11 10 10 11 11 11 11 10 9 8 8 7
24 22 21 20 19 19 19 18 16 14 14 14 12 12 10 10 9 9 9 9 9 9 8 9 9 9 8 7 7 8 8 9 9 9 9 10 10 9 10 10 11 11 11 11 11 10 9 8 8
24 24 23 22 21 22 21 21 18 17 16 15 13 12 11 10 10 10 10 9 9 9 9 9 9 9 9 8 8 8 9 9 9 9 9 9 9 9 9 10 10 11 12 11 11 11 10 9 9
26 26 26 25 24 24 22 23 21 19 16 15 14 12 12 11 10 10 10 10 9 9 10 10 10 10 10 9 9 10 10 10 10 9 9 9 9 9 9 9 9 10 10 10 10 10 10 9 9
28 28 28 28 27 25 23 24 20 17 17 16 15 13 12 11 10 10 9 9 9 9 9 10 10 11 11 10 10 10 9 10 10 10 10 9 9 9 10 10 9 9 10 10 10 10 10 10 10
27 28 28 28 27 24 24 23 19 17 18 17 16 14 13 11 10 10 10 9 9 9 9 10 11 11 11 11 11 10 10 10 10 10 10 10 10 10 10 10 10 10 10 10 10 10 10 10 10
27 28 28 27 26 25 24 22 20 19 19 19 18 15 13 12 11 10 10 9 9 9 9 10 11 11 11 11 11 10 11 11 11 11 11 11 10 10 11 10 10 11 10 10 10 11 10 11 11
27 27 29 29 28 26 24 22 20 19 19 18 16 13 12 11 11 10 9 9 10 10 10 10 11 12 12 12 11 11 11 11 11 12 12 12 11 11 12 11 12 12 11 11 11 11 11 11 12
29 30 30 30 29 27 24 22 19 17 16 16 14 13 13 11 11 10 10 9 9 10 11 11 11 12 12 12 11 11 11 11 11 11 11 11 12 12 12 12 12 12 12 12 11 12 12 11 12
29 29 30 30 29 27 25 22 19 17 16 17 15 14 13 11 11 11 10 9 9 11 11 12 12 12 13 12 11 10 10 11 10 10 11 12 12 12 12 13 13 13 13 13 12 13 13 13 13
Wind_Direction
136 130 113 123 109 98 80 68 56 44 47 49 47 46 46 47 62 79 88 107 113 113 116 120 115 115 111 109 107 102 101 100 103 102 100 102 101 99 100 102 101 101 101 101 101 99 96 93 93
155 144 136 125 117 99 77 60 48 42 46 51 48 47 46 51 60 79 94 107 116 117 117 122 118 117 114 110 106 102 101 101 101 100 101 101 101 101 101 101 101 102 101 101 101 100 93 86 87
169 154 153 120 123 117 83 57 38 35 42 46 46 49 52 60 62 76 92 110 119 124 120 121 122 122 119 114 108 104 101 100 92 100 100 101 99 100 100 98 102 101 99 101 99 95 89 82 79
182 169 164 148 130 109 84 56 34 26 27 36 42 44 48 61 66 75 90 110 122 127 126 122 126 126 125 116 111 104 100 102 94 106 105 108 104 98 91 91 103 101 100 98 96 90 84 76 69
200 183 173 147 131 108 91 61 32 20 15 25 33 31 37 53 67 77 93 106 126 130 128 127 127 130 128 117 112 101 98 103 107 114 109 116 109 99 87 82 102 108 106 95 88 80 73 68 70
209 207 201 191 144 117 91 63 37 10 357 13 19 21 30 53 69 81 99 113 123 138 145 145 137 139 141 132 119 112 104 102 117 119 109 100 117 131 328 17 63 90 92 85 83 77 70 60 51
211 209 223 222 188 121 85 50 21 359 350 356 4 16 28 52 69 81 101 117 133 143 153 160 164 162 165 148 132 120 109 109 140 156 184 222 222 233 277 301 18 50 49 53 53 60 60 39 28
213 213 226 225 189 125 88 41 7 353 347 338 345 358 13 45 70 86 120 139 169 176 181 187 188 185 191 194 185 154 133 224 224 284 234 255 254 248 259 276 310 337 5 7 9 35 47 35 33
213 214 220 219 194 139 91 23 349 338 343 340 341 348 1 30 68 78 197 207 201 197 198 198 205 205 207 212 217 206 239 276 255 270 306 291 273 253 260 271 289 299 314 327 341 352 354 12 21
211 213 217 221 215 222 289 302 333 326 326 327 334 344 348 21 66 74 222 232 232 215 215 212 213 210 213 220 228 232 237 273 271 276 290 308 294 272 271 266 274 289 305 310 311 324 318 335 344
217 215 214 217 216 239 270 284 303 314 312 321 330 328 328 339 35 69 223 244 239 242 228 220 221 217 220 231 239 246 239 241 262 291 295 290 291 276 271 264 263 278 296 302 302 301 309 331 325
217 219 223 224 226 241 264 268 279 288 293 301 315 326 319 325 332 343 228 235 249 259 259 249 234 227 227 238 242 250 242 238 245 269 286 289 290 287 272 265 260 273 287 291 292 296 304 314 319
218 220 225 229 230 239 256 265 266 276 288 296 306 315 316 320 322 317 256 242 250 258 268 263 245 239 236 244 246 251 236 234 246 261 275 286 286 285 279 270 262 266 270 276 287 293 294 297 304
221 222 225 230 233 238 247 252 255 263 281 292 294 307 309 306 310 316 294 251 244 249 258 254 246 246 239 240 244 240 230 238 248 257 270 282 280 281 274 275 267 257 252 258 275 287 294 298 297
222 223 225 230 235 236 241 248 254 260 275 288 283 291 304 303 305 306 299 268 250 251 251 254 247 243 237 236 245 247 243 245 251 254 265 278 274 274 271 262 258 254 254 254 262 271 282 290 293
225 225 225 228 232 236 240 246 257 264 273 278 280 288 294 293 291 290 290 282 268 261 261 262 251 247 240 235 240 246 248 251 254 257 264 267 268 266 266 261 259 256 254 255 253 258 264 275 285
225 226 226 226 228 231 238 244 257 267 273 280 278 282 282 275 281 286 286 287 279 271 270 267 259 255 247 237 237 243 250 254 256 259 261 259 262 264 264 262 264 257 256 255 252 253 257 267 274
223 223 224 223 223 227 234 243 255 261 266 278 280 280 285 285 284 286 287 288 282 271 270 271 265 262 255 248 244 244 250 253 256 261 258 257 260 262 262 259 257 259 259 255 254 255 252 258 265
221 220 219 218 216 223 232 239 248 257 262 271 276 275 282 291 289 283 282 286 289 281 276 273 267 269 255 252 248 247 249 253 258 263 258 257 260 259 261 256 254 256 258 256 257 256 253 255 260
218 218 220 218 217 226 235 239 244 254 261 267 272 269 273 282 286 282 280 284 286 280 272 264 261 261 255 250 245 249 249 251 257 265 259 259 260 259 261 254 250 252 255 255 255 257 256 257 259
217 216 217 215 216 227 235 240 242 250 261 266 270 267 268 276 281 282 281 283 283 279 270 264 258 260 258 255 249 248 252 255 260 264 259 257 258 259 259 252 252 251 252 253 253 254 252 253 255
218 215 215 214 219 223 231 237 241 248 256 261 266 267 266 273 277 276 275 280 283 277 267 262 258 258 259 258 254 251 254 257 258 261 261 258 254 256 255 253 254 252 251 251 249 249 250 248 251
213 212 214 216 221 225 230 236 239 245 252 259 266 266 263 271 274 273 274 279 279 273 266 262 256 256 256 256 256 253 252 252 255 260 258 257 254 253 255 254 255 254 249 248 248 247 246 247 253
211 214 217 219 224 228 232 239 242 247 254 257 257 260 260 262 267 271 274 279 276 269 266 261 257 254 255 258 258 256 254 253 256 257 255 251 253 251 250 252 253 250 243 241 245 246 245 248 252
213 216 218 221 226 230 233 241 245 249 253 253 250 252 255 259 263 268 269 275 275 273 270 263 257 255 255 257 259 259 255 254 254 254 252 249 248 249 251 250 250 246 239 240 244 246 247 251 254
215 219 221 224 227 232 235 242 244 248 250 249 249 251 255 258 261 263 262 265 268 269 270 264 258 255 255 256 258 256 253 252 251 251 250 247 245 245 246 248 248 243 242 243 243 246 250 252 254
216 217 221 226 228 232 234 239 244 247 247 247 248 251 254 260 258 258 258 257 265 267 266 262 258 256 257 259 258 257 255 252 251 248 248 245 246 246 242 242 244 243 242 242 245 247 250 253 252
216 216 220 224 227 232 234 237 240 245 248 243 245 250 257 258 255 253 257 258 261 265 264 260 256 256 254 256 259 257 255 252 250 246 245 244 248 249 245 241 243 242 241 245 249 251 252 253 252
215 216 220 225 230 234 238 238 240 251 251 252 251 255 255 257 259 256 255 256 259 265 268 264 261 256 253 254 254 252 250 248 246 246 247 246 249 251 246 242 242 241 244 249 251 254 257 256 256
216 219 220 225 230 236 241 242 239 250 250 251 254 254 251 256 258 252 252 256 260 266 267 269 266 257 253 250 249 251 249 249 249 248 248 248 248 249 248 246 243 241 245 250 253 254 255 256 256
Height
5894 5893 5894 5893 5894 5894 5892 5892 5892 5893 5894 5893 5893 5893 5893 5893 5893 5895 5892 5891 5891 5891 5891 5892 5892 5893 5894 5895 5895 5896 5896 5896 5897 5897 5897 5897 5897 5897 5897 5897 5897 5897 5896 5897 5897 5897 5897 5897 5896
5894 5894 5895 5894 5893 5893 5893 5892 5893 5894 5895 5894 5894 5894 5894 5893 5893 5893 5892 5892 5892 5892 5892 5893 5894 5894 5895 5896 5897 5897 5897 5898 5898 5898 5898 5899 5899 5899 5899 5898 5898 5898 5898 5898 5898 5898 5898 5898 5897
5894 5894 5895 5894 5894 5894 5893 5893 5893 5894 5894 5895 5895 5895 5895 5894 5893 5893 5893 5893 5893 5893 5894 5894 5895 5896 5896 5897 5898 5898 5899 5899 5899 5899 5899 5900 5900 5900 5900 5900 5899 5899 5899 5899 5899 5899 5899 5898 5898
5894 5895 5895 5895 5894 5894 5893 5892 5893 5894 5895 5896 5896 5896 5895 5895 5894 5894 5894 5893 5894 5894 5895 5895 5896 5897 5897 5898 5899 5899 5900 5900 5900 5900 5900 5901 5901 5901 5901 5901 5900 5900 5900 5900 5900 5900 5900 5899 5899
5894 5894 5895 5894 5893 5893 5892 5893 5894 5895 5896 5896 5896 5895 5896 5895 5894 5894 5894 5894 5894 5895 5895 5896 5897 5898 5898 5899 5900 5900 5900 5901 5901 5901 5901 5902 5902 5902 5902 5902 5901 5901 5901 5901 5901 5901 5901 5900 5900
5894 5895 5895 5895 5893 5893 5892 5893 5894 5896 5896 5896 5896 5895 5895 5895 5894 5894 5894 5894 5895 5895 5896 5897 5898 5898 5899 5900 5900 5901 5901 5901 5901 5901 5902 5902 5902 5902 5902 5902 5902 5902 5902 5902 5902 5902 5901 5901 5901
5894 5894 5894 5894 5893 5892 5892 5893 5894 5896 5896 5896 5896 5895 5895 5895 5895 5894 5894 5895 5895 5896 5896 5897 5898 5899 5900 5900 5901 5901 5901 5902 5902 5902 5902 5903 5903 5903 5903 5903 5902 5902 5903 5902 5902 5902 5902 5901 5901
5893 5894 5893 5893 5892 5892 5892 5892 5893 5895 5896 5896 5896 5895 5895 5896 5895 5895 5895 5895 5895 5896 5897 5897 5898 5899 5900 5900 5901 5901 5902 5902 5902 5902 5902 5903 5903 5903 5903 5903 5903 5903 5903 5903 5903 5902 5902 5901 5901
5892 5894 5892 5892 5892 5891 5891 5893 5894 5895 5896 5895 5895 5895 5895 5895 5895 5895 5895 5895 5895 5896 5896 5897 5898 5899 5899 5900 5901 5901 5901 5902 5902 5902 5903 5903 5903 5903 5903 5903 5903 5903 5903 5903 5903 5902 5902 5902 5901
5891 5891 5892 5892 5891 5891 5891 5893 5894 5895 5895 5895 5895 5895 5895 5895 5895 5895 5894 5895 5894 5895 5896 5897 5898 5898 5899 5900 5900 5901 5901 5902 5902 5902 5903 5903 5903 5902 5902 5903 5903 5903 5903 5903 5902 5902 5902 5901 5901
5889 5890 5890 5891 5891 5890 5890 5891 5893 5894 5895 5895 5895 5894 5894 5894 5894 5894 5894 5894 5894 5895 5896 5896 5897 5898 5899 5899 5900 5900 5901 5901 5902 5902 5902 5902 5902 5902 5902 5902 5902 5902 5902 5902 5902 5902 5901 5901 5901
5887 5888 5888 5889 5889 5890 5890 5891 5893 5894 5894 5894 5894 5893 5893 5893 5893 5894 5894 5894 5894 5895 5895 5896 5896 5897 5898 5898 5899 5899 5900 5901 5901 5902 5902 5902 5902 5902 5902 5902 5902 5902 5902 5902 5902 5901 5901 5901 5900
5885 5886 5887 5888 5888 5889 5890 5891 5892 5892 5893 5893 5893 5893 5893 5893 5893 5893 5894 5894 5894 5894 5894 5895 5895 5896 5897 5897 5898 5898 5899 5900 5901 5901 5901 5901 5901 5901 5901 5901 5901 5901 5901 5901 5901 5901 5901 5900 5900
5882 5883 5885 5886 5887 5887 5889 5890 5891 5891 5891 5891 5892 5892 5892 5892 5892 5892 5893 5894 5894 5894 5894 5894 5894 5895 5896 5896 5897 5897 5898 5899 5900 5900 5900 5900 5900 5900 5900 5900 5900 5900 5900 5900 5900 5900 5900 5900 5900
5879 5881 5883 5884 5885 5886 5888 5889 5890 5890 5891 5891 5891 5891 5891 5891 5891 5891 5891 5892 5892 5892 5892 5893 5893 5894 5894 5895 5896 5896 5897 5898 5898 5898 5899 5899 5899 5899 5899 5899 5899 5899 5899 5899 5900 5900 5899 5899 5899
5876 5878 5880 5883 5884 5885 5887 5888 5888 5888 5889 5889 5890 5890 5890 5890 5890 5889 5890 5890 5890 5890 5890 5891 5891 5892 5893 5894 5894 5895 5895 5896 5896 5897 5897 5897 5897 5897 5898 5898 5898 5898 5898 5898 5898 5899 5899 5898 5898
5873 5876 5878 5881 5882 5883 5884 5885 5886 5886 5887 5887 5888 5889 5889 5889 5889 5888 5888 5888 5888 5888 5888 5889 5889 5890 5891 5892 5892 5893 5894 5894 5895 5895 5895 5895 5895 5896 5896 5896 5896 5896 5897 5897 5897 5897 5897 5897 5897
5871 5873 5875 5877 5879 5880 5881 5883 5883 5883 5884 5885 5886 5887 5887 5887 5887 5887 5886 5886 5886 5886 5886 5886 5887 5888 5888 5889 5890 5891 5891 5892 5892 5892 5893 5893 5893 5894 5894 5894 5894 5895 5895 5895 5895 5895 5896 5896 5896
5867 5869 5871 5874 5875 5877 5878 5880 5881 5882 5882 5883 5884 5885 5885 5885 5885 5885 5885 5884 5884 5884 5884 5883 5884 5885 5886 5886 5887 5888 5889 5889 5890 5890 5890 5891 5891 5891 5892 5892 5892 5893 5893 5893 5893 5894 5894 5894 5894
5862 5865 5868 5871 5872 5874 5875 5877 5878 5879 5880 5881 5882 5883 5883 5883 5883 5883 5883 5883 5882 5882 5882 5882 5883 5883 5883 5884 5884 5885 5886 5886 5887 5887 5887 5888 5889 5889 5889 5890 5890 5891 5891 5891 5892 5892 5892 5893 5893
5859 5862 5865 5867 5868 5870 5872 5874 5875 5876 5877 5879 5880 5881 5881 5881 5881 5882 5882 5881 5881 5880 5880 5880 5880 5881 5881 5881 5882 5883 5883 5884 5885 5885 5885 5886 5886 5886 5886 5887 5888 5888 5889 5889 5890 5890 5890 5891 5891
5856 5860 5862 5863 5864 5866 5869 5870 5872 5873 5875 5876 5877 5878 5878 5879 5879 5879 5879 5879 5878 5878 5877 5877 5878 5879 5879 5879 5880 5880 5881 5882 5882 5882 5883 5883 5883 5883 5884 5884 5885 5886 5886 5887 5887 5888 5888 5889 5889
5853 5855 5857 5859 5860 5863 5865 5867 5870 5870 5872 5873 5874 5874 5876 5876 5876 5877 5877 5876 5876 5875 5875 5875 5876 5876 5877 5877 5878 5878 5879 5879 5880 5880 5880 5880 5880 5881 5881 5882 5882 5883 5883 5884 5885 5885 5886 5886 5886
5848 5850 5853 5854 5856 5859 5862 5863 5866 5867 5869 5870 5871 5871 5872 5873 5874 5874 5874 5874 5874 5873 5873 5873 5873 5874 5874 5875 5875 5875 5876 5876 5877 5877 5877 5878 5878 5878 5879 5879 5880 5880 5881 5882 5882 5883 5883 5884 5884
5842 5845 5848 5850 5852 5855 5858 5859 5863 5864 5865 5866 5867 5868 5869 5870 5870 5871 5871 5871 5871 5871 5871 5871 5871 5871 5872 5872 5872 5873 5873 5873 5873 5874 5875 5875 5875 5876 5877 5877 5877 5878 5878 5879 5880 5880 5881 5881 5882
5837 5841 5844 5847 5849 5852 5854 5855 5859 5860 5861 5862 5863 5864 5865 5865 5866 5867 5868 5868 5868 5868 5868 5868 5868 5868 5869 5869 5869 5870 5870 5870 5871 5871 5872 5872 5873 5873 5874 5875 5875 5875 5876 5877 5877 5878 5878 5879 5879
5832 5836 5840 5843 5845 5847 5849 5852 5854 5855 5856 5858 5859 5860 5861 5862 5863 5864 5865 5865 5865 5865 5865 5865 5865 5866 5866 5866 5866 5867 5867 5867 5868 5868 5869 5869 5870 5870 5871 5872 5872 5873 5873 5874 5874 5875 5875 5876 5876
5829 5832 5835 5838 5840 5842 5846 5848 5850 5852 5853 5854 5855 5856 5857 5859 5860 5860 5861 5862 5862 5862 5862 5862 5863 5863 5863 5863 5863 5863 5864 5864 5864 5865 5865 5866 5867 5867 5868 5869 5869 5870 5870 5871 5871 5872 5872 5872 5873
5824 5827 5830 5833 5836 5839 5841 5845 5847 5848 5849 5850 5851 5852 5853 5855 5856 5857 5858 5858 5859 5860 5860 5860 5859 5859 5859 5860 5860 5860 5860 5861 5861 5862 5862 5863 5863 5864 5864 5865 5866 5866 5867 5868 5868 5869 5869 5869 5869
5819 5823 5826 5829 5831 5834 5836 5842 5843 5844 5845 5846 5847 5849 5850 5851 5852 5854 5854 5854 5855 5856 5856 5856 5856 5856 5855 5856 5856 5856 5856 5857 5858 5859 5859 5860 5860 5861 5861 5862 5862 5863 5864 5864 5865 5865 5865 5865 5866